Location: Newark
(50.0953°N, 2.1719°E)
Time: 00:02:33
(UTC+00:00)

N. Korean satellite - Visible Passes

Search period start: 20 January 2020 00:00
Search period end: 30 January 2020 00:00
Orbit: 454 x 508 km, 97.2° (Epoch: 19 January)

Date Brightness Start Highest point End Pass type
(mag) Time Alt. Az. Time Alt. Az. Time Alt. Az.
20 Jan 9.7 04:45:16 10° NE 04:47:26 15° E 04:49:37 10° SE visible
20 Jan 6.8 06:17:41 10° N 06:21:04 45° WNW 06:24:28 10° SW visible
20 Jan 7.2 16:57:17 10° S 17:00:40 60° WSW 17:04:05 10° NNW visible
21 Jan 6.4 05:52:05 10° NNE 05:55:37 90° ENE 05:59:11 10° SSW visible
21 Jan 10.3 18:08:33 10° W 18:09:00 10° W 18:09:27 10° W visible
22 Jan 7.7 05:26:40 10° NNE 05:30:04 44° E 05:33:31 10° S visible
22 Jan 8.1 07:00:51 10° NNW 07:03:11 17° WNW 07:05:33 10° WSW visible
22 Jan 9.6 17:40:43 10° SW 17:43:15 19° W 17:45:48 10° NW visible
23 Jan 9.0 05:01:34 10° NE 05:04:27 23° E 05:07:23 10° SSE visible
23 Jan 7.3 06:34:45 10° N 06:37:53 29° WNW 06:41:01 10° SW visible
23 Jan 8.3 17:14:24 10° SSW 17:17:35 36° W 17:20:49 10° NNW visible
24 Jan 9.9 04:37:05 10° ENE 04:38:44 13° E 04:40:26 10° ESE visible
24 Jan 6.5 06:08:59 10° N 06:12:28 56° WNW 06:16:00 10° SSW visible
25 Jan 6.8 05:43:25 10° NNE 05:46:59 72° ESE 05:50:35 10° S visible
25 Jan 9.9 17:58:40 10° WSW 18:00:15 13° W 18:01:52 10° WNW visible
26 Jan 8.2 05:18:06 10° NNE 05:21:25 35° E 05:24:46 10° SSE visible
26 Jan 7.9 06:51:56 10° NNW 06:54:38 20° WNW 06:57:21 10° WSW visible
26 Jan 9.2 17:31:43 10° SSW 17:34:32 24° W 17:37:23 10° NW visible
27 Jan 9.4 04:53:07 10° NE 04:55:46 19° E 04:58:27 10° SE visible
27 Jan 7.1 06:25:59 10° N 06:29:17 36° WNW 06:32:37 10° SW visible
28 Jan 10.2 04:29:15 10° ENE 04:30:01 11° E 04:30:47 10° E visible
28 Jan 6.4 06:00:16 10° N 06:03:51 72° WNW 06:07:29 10° SSW visible
29 Jan 7.2 05:34:47 10° NNE 05:38:20 57° E 05:41:56 10° S visible
29 Jan 9.8 17:49:21 10° SW 17:51:31 16° W 17:53:41 10° NW visible
